Theta_e
327 328 329 330 329 328 329 329 330 332 334 334 334 333 332 331 330 331 330 330 330 330 333 331 329 329 329 329 329 328 329 329 327 329 332 334 340 346 348 346 345 345 345 344 344 344 343 343 342 342 341 340 340 339 338 338 337 337 338 335 335 334 333 333 333 332 332 331 331 331 331 331 331 331 331 331 332 331 330 330 329 328 328 328 328
328 328 329 328 329 327 328 329 329 329 330 330 332 331 331 331 331 332 333 331 331 331 332 330 330 330 330 329 330 331 331 331 329 327 334 333 337 344 348 347 346 345 345 345 345 344 344 344 343 342 342 341 341 340 339 339 338 337 337 339 336 336 334 334 333 333 333 332 332 331 331 332 332 331 331 331 332 332 330 329 329 330 329 329 328
329 329 328 327 326 326 327 329 328 328 329 334 335 330 329 330 330 332 330 329 330 331 332 330 328 330 330 329 330 331 331 332 331 329 332 333 336 339 346 348 346 345 345 345 346 344 345 344 344 343 342 342 341 341 340 340 340 339 339 340 339 338 336 335 334 334 334 333 332 332 331 331 332 332 332 332 333 333 332 330 330 330 330 330 329
328 328 326 325 325 326 326 327 327 327 328 330 334 336 336 334 333 333 334 333 331 331 332 330 327 328 329 330 330 331 332 332 332 331 330 333 335 338 341 345 347 346 345 344 345 346 345 344 345 345 344 343 343 342 342 341 341 340 340 338 340 338 338 336 335 335 334 334 333 333 332 332 331 331 331 331 332 334 334 333 332 332 331 330 330
328 329 331 325 324 324 325 329 330 331 331 330 329 329 329 331 333 332 331 332 332 330 333 331 329 329 329 331 330 332 334 334 332 331 330 332 333 335 337 341 342 346 346 345 345 346 347 346 345 345 345 344 344 343 343 343 342 341 340 339 339 340 339 338 338 337 336 335 334 334 333 333 332 332 332 332 331 332 334 334 334 333 332 331 330
329 328 326 325 324 325 328 330 330 331 330 329 328 328 330 329 328 330 332 328 328 328 329 328 329 330 330 331 329 330 332 334 332 331 330 329 332 334 335 336 338 339 342 346 345 345 347 347 347 346 346 345 345 345 345 344 344 344 342 341 341 340 340 339 339 338 337 336 336 335 335 334 333 333 332 332 333 333 333 333 334 333 332 332 331
329 328 326 325 324 325 327 330 331 329 328 328 326 328 327 326 327 325 326 328 327 330 328 326 327 328 328 329 328 330 331 331 332 332 331 329 329 333 334 334 335 336 339 340 344 345 346 347 347 348 347 347 347 346 346 346 345 345 345 344 342 342 341 341 339 339 338 338 337 336 336 335 334 334 334 334 333 332 334 333 333 333 333 333 333
330 328 326 325 326 324 325 327 330 329 329 328 327 327 327 326 329 326 325 327 329 329 330 328 327 328 328 327 326 329 329 329 330 332 332 329 330 329 331 332 333 334 340 336 338 341 345 345 347 347 347 347 347 347 346 345 345 346 345 344 343 343 343 341 340 339 339 339 338 338 337 337 336 335 335 334 334 333 333 334 334 334 334 334 333
329 328 326 325 324 325 327 327 329 328 327 325 324 325 324 328 325 329 325 325 327 328 326 328 328 329 328 327 328 329 329 331 331 332 336 329 329 329 329 331 334 342 337 334 334 334 341 345 345 346 346 347 347 348 347 346 345 345 344 343 341 341 343 342 340 340 339 339 339 339 338 338 337 336 336 336 335 335 334 334 334 334 333 333 334
327 327 326 328 327 327 327 327 328 327 326 323 322 324 324 323 322 324 327 325 325 326 326 327 330 329 329 330 329 328 329 330 333 337 334 333 332 332 332 332 333 336 335 334 335 334 334 339 343 344 345 346 346 346 348 348 343 341 343 341 341 342 345 345 342 341 340 340 340 340 339 339 338 338 337 337 337 336 336 335 335 335 334 334 334
329 330 327 329 326 325 325 326 326 324 323 322 323 325 324 324 323 324 327 324 322 323 324 327 330 330 331 329 328 330 329 330 331 330 330 333 333 334 334 333 333 334 333 334 335 336 336 335 336 337 339 344 345 345 344 342 341 342 345 344 344 345 345 347 344 342 341 340 341 341 340 340 339 339 339 338 338 338 337 337 337 336 335 335 334
327 326 326 327 324 325 324 325 326 323 321 321 322 321 321 321 322 323 322 326 327 325 325 325 326 327 328 329 328 329 331 332 332 333 332 331 333 334 333 334 332 333 334 335 335 336 336 337 338 338 338 337 337 337 339 341 342 343 344 344 346 347 346 345 346 344 342 342 341 341 341 341 340 340 339 339 339 339 338 338 338 338 337 337 336
329 327 326 331 326 325 325 327 325 324 323 321 323 321 323 322 323 325 321 318 321 324 325 324 320 318 321 323 324 327 331 335 333 333 334 333 333 333 332 332 332 332 335 336 336 337 337 337 337 337 335 336 335 338 339 340 341 343 345 346 347 348 347 348 347 345 345 343 342 342 342 341 341 341 340 340 340 340 339 339 339 338 338 338 338
330 326 327 326 324 325 325 325 325 324 326 325 324 330 324 323 321 318 320 320 319 321 323 319 318 316 315 316 321 322 328 328 329 326 327 329 331 332 331 330 330 331 332 333 334 336 336 335 336 337 336 337 335 334 335 338 340 342 344 345 347 348 348 348 347 346 345 345 344 343 342 342 342 342 342 341 341 340 340 340 339 339 339 339 338
328 329 327 325 323 324 323 323 324 329 325 325 324 321 320 321 318 317 316 320 321 322 320 320 316 319 318 314 312 312 318 320 321 323 326 326 330 330 330 330 330 331 331 332 332 333 333 333 335 335 335 337 336 336 336 339 340 341 342 344 345 346 348 349 348 348 347 346 345 344 343 343 343 343 343 342 341 341 341 340 340 340 340 339 338
325 325 324 324 323 322 321 322 322 326 324 323 322 322 320 321 321 323 316 313 315 315 324 322 319 317 311 312 311 311 309 312 316 319 323 326 329 330 330 330 332 332 330 329 329 329 331 331 333 333 334 334 334 334 333 335 338 340 341 343 344 344 345 347 348 348 348 348 346 345 345 344 345 345 344 343 342 342 341 341 341 341 340 339 338
322 323 324 321 320 320 320 319 320 322 323 320 320 321 321 319 317 316 314 312 311 314 320 322 318 324 317 313 310 309 310 315 315 314 320 320 321 325 331 329 326 326 328 327 327 329 331 332 334 333 331 333 334 333 332 333 332 337 339 341 342 343 343 345 346 347 348 348 348 347 347 346 346 346 345 345 344 343 343 342 342 341 340 339 338
322 322 324 323 320 320 319 319 319 320 320 316 317 317 315 315 315 314 313 314 312 309 309 317 325 323 321 321 318 313 313 315 315 310 320 322 324 327 328 326 326 324 328 327 327 327 330 331 330 331 332 331 332 332 333 334 336 334 334 335 340 342 342 343 344 345 346 347 348 348 349 348 347 347 346 346 344 344 344 343 342 341 339 339 338
322 322 322 323 319 319 318 318 318 319 322 317 316 316 316 316 317 314 313 315 310 308 309 312 314 317 319 319 322 324 321 316 313 315 312 318 320 321 322 321 323 326 326 325 325 325 328 330 330 330 331 331 331 332 332 332 336 336 339 339 339 339 340 342 344 344 345 346 347 347 348 349 349 348 347 346 345 344 343 343 341 340 339 339 339
321 321 321 322 319 318 318 318 318 320 321 316 316 316 319 319 318 315 315 313 310 310 309 310 310 310 317 316 318 323 323 322 321 317 315 313 315 320 320 317 319 319 327 328 329 327 327 326 328 332 331 333 332 332 331 330 330 331 333 338 339 340 341 343 345 347 347 347 347 347 347 348 349 348 347 345 344 341 340 341 341 340 340 340 339
320 321 320 322 324 318 316 315 317 320 321 318 316 316 315 313 312 313 312 313 312 311 307 309 308 309 308 309 311 311 315 320 323 322 317 314 314 314 313 317 317 315 319 322 327 329 328 330 332 333 331 331 331 330 331 330 330 331 334 339 342 342 343 343 344 347 347 348 348 347 347 347 346 345 343 343 341 340 341 340 339 340 340 340 339
318 319 319 321 320 320 316 315 316 318 320 315 315 315 314 313 312 312 312 312 313 310 309 308 309 310 310 310 308 307 309 310 312 313 314 315 310 311 313 312 310 313 317 316 317 316 318 322 326 325 325 326 326 326 326 328 329 331 331 334 336 338 340 344 346 346 345 344 341 340 339 338 339 339 339 338 340 340 342 341 340 340 339 339 338
318 318 318 318 318 319 314 314 318 324 319 314 313 314 313 313 313 315 313 312 312 311 312 312 310 309 309 308 308 308 307 307 308 311 311 310 309 310 311 313 314 312 314 316 317 315 314 314 315 318 319 319 319 319 318 317 321 325 325 325 328 331 331 331 335 338 339 338 335 335 336 337 337 336 337 337 339 340 341 340 339 337 337 337 339
315 315 314 316 319 316 318 315 315 314 315 315 314 313 312 312 312 313 311 312 313 314 309 309 309 309 309 309 308 309 309 309 311 312 310 310 310 309 310 311 312 312 317 315 316 314 313 312 312 312 314 317 317 315 314 314 316 324 320 322 324 327 327 327 328 329 332 336 337 336 337 335 335 338 338 336 337 338 341 339 337 337 338 339 340
316 315 314 314 317 315 313 314 313 314 314 313 311 310 309 310 311 311 310 309 310 310 308 308 307 308 308 308 310 310 310 310 311 311 311 312 310 306 308 311 307 309 311 313 311 314 312 311 312 312 312 312 314 315 314 314 315 321 319 317 321 322 325 325 326 327 327 328 329 332 336 336 336 337 337 337 337 337 335 333 334 334 336 336 335
316 315 316 316 317 316 316 313 313 313 313 311 310 309 309 309 310 310 310 310 309 308 308 309 307 308 308 307 308 309 308 309 308 309 310 309 307 306 306 306 307 306 308 309 311 310 309 311 311 311 311 312 312 313 313 313 314 320 319 315 316 320 322 323 324 324 325 325 325 327 330 332 332 333 335 336 336 334 334 333 334 336 335 335 334
317 317 319 317 317 316 314 313 313 312 313 312 313 310 311 310 312 311 310 308 309 308 306 306 308 307 307 307 310 308 308 311 309 310 310 309 308 307 306 303 302 303 304 306 307 308 307 310 310 309 310 312 311 312 312 312 316 319 317 312 311 317 319 321 322 323 324 325 324 324 324 325 328 332 335 335 334 333 334 334 334 334 333 332 332
318 318 318 317 315 314 315 312 311 310 310 310 310 309 309 309 308 307 309 313 307 306 306 305 306 307 307 306 307 306 308 309 310 309 308 309 309 308 306 303 300 299 301 302 302 303 308 306 309 309 309 309 310 311 314 313 313 316 315 311 310 311 316 317 319 320 322 322 323 324 324 324 324 324 325 326 327 329 330 331 333 332 333 334 334
319 319 318 315 314 314 312 311 311 311 311 311 310 309 309 309 307 307 307 309 309 306 306 305 306 308 306 306 306 306 306 307 306 309 308 307 308 307 306 304 303 300 298 299 299 301 304 307 306 307 309 309 309 310 310 310 314 313 309 309 309 309 313 314 313 316 319 319 319 320 322 322 322 323 323 323 325 326 326 327 328 330 330 328 328
321 320 318 315 314 319 311 311 311 309 310 310 310 309 309 308 307 307 308 306 306 306 307 306 305 307 308 305 305 305 307 305 305 307 306 305 305 306 306 306 304 300 299 298 298 302 303 305 305 304 307 307 308 309 309 308 315 311 309 308 307 310 313 312 311 313 315 313 312 313 316 319 321 322 322 323 323 323 324 324 324 325 326 327 327
321 319 316 314 314 314 312 311 311 310 309 309 309 308 308 306 307 306 306 304 303 304 306 308 308 306 303 304 303 304 305 304 304 304 304 305 304 304 303 304 306 304 302 300 297 300 304 302 304 306 306 306 307 307 308 308 311 311 308 307 308 313 313 311 312 312 311 309 309 309 311 313 316 317 318 319 319 319 319 319 318 318 316 315 316
320 318 315 314 314 312 311 312 311 309 309 309 309 308 307 308 306 305 305 304 305 304 304 305 307 305 304 303 303 303 303 303 302 303 302 304 304 303 303 303 302 303 303 300 298 299 302 302 303 304 306 305 307 305 306 308 309 312 308 307 308 311 309 308 311 311 309 308 307 307 308 309 310 312 313 314 315 315 315 315 314 311 311 314 315
319 316 315 314 314 313 312 312 310 309 309 309 309 308 308 306 305 305 305 305 304 304 307 304 305 306 305 302 302 303 302 302 301 302 303 303 303 303 304 302 302 302 301 299 297 298 299 303 303 304 305 305 304 305 305 305 306 307 309 307 307 306 306 306 307 309 309 308 307 306 306 305 305 306 309 312 310 309 310 309 306 308 312 313 312
318 317 315 314 314 313 312 311 310 310 311 310 308 308 307 305 305 308 306 304 304 304 302 303 302 306 302 302 303 303 302 302 301 302 302 302 303 302 302 302 300 302 301 299 298 297 296 299 301 303 303 304 302 305 304 304 305 307 305 306 306 306 306 306 305 306 308 307 306 306 305 304 304 303 304 306 305 303 303 304 304 305 306 307 307
319 317 316 315 314 313 312 311 310 310 311 309 308 307 306 306 305 306 306 303 303 303 303 303 303 302 301 302 301 301 304 301 301 301 302 302 303 302 301 302 301 300 301 300 297 296 296 297 298 300 302 303 302 303 304 305 306 305 304 304 305 306 307 305 304 305 306 306 306 305 305 304 304 303 303 303 303 303 303 303 304 304 304 304 305
319 320 317 318 315 314 314 313 312 311 310 309 307 307 306 306 305 305 304 303 303 303 302 302 303 302 300 300 300 300 300 299 299 299 300 301 302 302 301 300 301 301 300 299 299 297 297 296 296 299 301 300 300 303 305 305 304 303 304 303 304 304 304 304 303 304 305 306 306 305 305 304 304 303 303 303 303 303 303 303 303 303 304 304 304
319 318 319 319 317 315 313 313 313 312 310 309 308 307 307 305 304 304 303 303 302 302 302 304 310 301 302 299 300 300 300 299 298 298 299 299 300 301 300 299 300 300 300 300 299 297 295 295 296 297 299 299 302 301 303 302 302 302 302 301 302 302 302 303 304 305 306 306 306 305 305 304 304 304 303 303 303 303 303 303 303 303 304 304 304
318 319 319 318 318 316 313 313 312 311 310 309 309 309 307 307 306 305 305 304 303 302 301 301 301 301 300 299 300 299 299 299 297 297 297 298 298 298 298 297 298 297 297 297 297 297 297 296 296 296 296 298 298 298 301 301 300 299 300 300 300 301 301 300 301 303 304 304 303 303 304 303 303 304 303 303 303 302 302 303 303 304 305 305 304
318 317 317 318 318 318 315 314 313 311 310 310 309 308 308 308 307 307 305 304 302 301 301 302 301 300 300 300 299 299 299 298 298 297 297 297 299 297 298 296 297 296 295 295 296 296 295 295 296 296 296 298 298 297 300 301 300 299 298 297 297 299 300 299 300 301 302 302 303 305 304 304 305 304 303 303 303 303 303 304 305 306 307 306 304
318 318 318 318 317 318 316 315 313 312 310 310 308 308 309 308 308 306 306 304 302 302 302 301 301 300 300 300 300 299 299 298 297 296 296 295 296 296 296 296 295 294 294 295 294 294 294 294 294 294 296 297 296 297 300 297 297 297 299 298 295 296 297 298 298 298 300 301 300 300 303 303 303 304 304 304 304 305 306 306 307 306 307 305 303
315 317 318 318 317 317 318 317 314 312 311 309 308 307 308 308 307 306 305 305 303 302 301 300 301 301 301 301 300 299 303 307 307 305 305 304 296 295 296 296 295 294 293 294 295 293 293 294 294 296 295 294 294 295 294 293 294 294 296 296 295 296 296 297 297 298 300 299 299 299 299 300 301 301 302 302 304 307 306 305 304 305 305 303 301
316 316 316 316 317 317 317 316 315 312 311 310 312 310 310 308 307 306 306 305 303 302 303 301 300 300 301 301 304 310 310 309 307 306 305 304 305 300 294 293 294 292 292 292 292 293 294 293 293 293 292 292 292 293 294 294 295 295 295 295 294 295 295 294 296 296 300 298 297 297 299 301 301 301 302 302 304 305 303 302 302 302 302 301 301
315 316 316 315 315 316 316 315 313 311 311 311 307 301 301 306 308 306 305 304 304 303 303 301 300 300 299 301 303 309 309 308 306 304 302 301 300 301 303 303 302 294 292 292 291 292 295 293 292 292 291 291 292 293 294 294 294 295 293 293 294 294 291 291 290 295 298 298 297 296 297 300 301 300 301 303 304 304 303 302 301 301 301 300 300
313 314 315 315 315 315 315 315 313 312 311 311 299 299 300 301 306 306 304 304 304 302 301 300 300 299 299 300 300 302 301 303 302 302 303 302 299 298 297 297 297 298 300 296 295 293 291 291 290 291 291 291 291 293 292 293 293 293 292 292 292 291 291 290 290 290 297 299 296 295 296 299 301 301 301 303 305 304 302 302 301 301 300 300 300
312 313 314 314 314 315 315 314 313 313 310 304 297 298 298 298 300 305 303 303 303 302 301 300 299 298 299 300 299 300 302 309 308 301 301 301 302 300 299 299 299 297 294 293 296 299 292 291 291 291 291 292 292 293 297 296 294 292 292 292 291 291 291 290 290 292 297 299 297 295 295 298 300 300 300 303 306 304 303 302 301 301 300 299 299
311 312 312 313 313 313 313 313 312 312 311 303 297 298 297 297 297 299 303 303 303 302 301 301 300 299 298 299 299 299 298 301 300 300 300 298 298 298 297 296 295 300 301 297 295 295 298 296 293 292 294 295 295 294 298 297 295 294 293 292 292 291 292 293 294 295 298 300 296 295 294 296 298 298 299 302 308 305 303 302 301 300 299 299 298
311 311 311 311 312 312 312 313 311 311 310 300 295 296 296 296 296 299 302 303 302 302 302 301 300 299 299 300 299 299 299 299 301 301 297 296 295 295 294 294 294 293 294 294 295 297 297 297 295 295 295 295 295 295 295 295 295 296 295 295 293 293 293 294 295 296 297 299 298 296 293 296 297 297 299 301 305 309 305 302 302 301 299 298 298
311 310 310 311 311 311 312 311 310 308 307 296 295 295 295 295 296 303 301 301 300 301 301 300 300 300 300 300 300 299 299 299 305 301 301 297 294 293 293 292 293 293 294 301 297 299 301 297 296 296 296 296 297 297 297 296 296 295 299 295 294 293 292 291 291 294 294 298 300 296 294 295 297 297 298 302 304 308 309 308 303 301 300 299 298
309 309 309 310 311 311 311 310 310 309 306 297 294 294 294 294 297 301 301 300 300 300 300 301 300 300 300 300 300 299 299 298 300 295 296 301 293 293 292 291 293 294 294 295 296 296 296 295 295 295 295 294 294 294 294 294 295 295 294 292 293 291 291 290 292 291 294 297 298 300 297 295 296 297 298 301 305 303 303 304 305 302 300 299 298
305 306 308 309 310 311 310 311 310 309 307 300 294 294 294 294 300 300 300 299 299 299 300 301 301 300 302 308 306 300 299 299 296 292 293 298 293 292 291 291 291 290 290 291 293 293 294 294 294 293 293 293 293 293 293 294 294 296 295 292 291 291 291 291 289 291 294 298 300 301 297 295 295 296 298 300 304 302 302 301 302 302 302 300 299
306 306 305 306 307 308 309 310 313 311 306 300 294 293 293 294 299 299 299 298 297 298 299 300 301 301 301 307 309 305 302 300 294 292 292 298 293 292 291 290 290 289 289 288 289 289 289 290 287 289 290 293 295 294 298 297 295 297 295 295 293 292 292 291 292 293 294 295 300 301 295 293 295 297 298 298 298 300 300 300 300 300 300 300 300
Wind_Speed
2 2 2 2 2 1 1 2 2 2 2 2 2 2 1 0 0 0 0 1 0 0 0 1 1 2 2 3 4 4 4 4 1 3 4 6 7 10 16 15 15 16 17 18 18 18 17 17 16 16 16 15 15 14 13 14 13 12 10 13 13 12 12 11 11 11 10 9 9 9 10 9 9 8 7 7 6 5 6 7 7 7 7 6 6
2 2 3 2 2 1 1 1 1 2 2 2 1 1 0 0 1 0 0 0 0 1 0 0 1 1 1 1 3 3 3 4 3 1 5 5 6 7 16 16 16 16 17 18 19 19 18 18 17 17 17 17 16 16 15 15 14 14 12 11 13 13 13 12 12 12 12 11 10 10 10 10 10 9 9 9 8 8 9 8 8 8 8 8 7
3 3 3 2 1 1 1 1 1 0 0 1 1 1 0 1 1 0 1 2 1 1 0 0 1 1 0 1 2 3 4 3 2 3 2 5 4 4 8 15 15 15 16 16 17 18 19 18 18 18 18 18 17 17 17 16 15 14 12 11 12 12 13 13 13 13 13 12 12 11 11 10 10 9 9 9 7 9 10 10 10 9 9 9 8
3 3 2 2 1 1 1 2 1 1 1 1 1 1 1 1 1 2 2 2 1 1 0 0 1 1 1 0 1 1 3 3 3 2 1 4 5 5 6 8 12 11 10 10 11 14 17 18 18 19 19 19 18 18 17 16 16 14 13 12 11 13 13 13 13 13 13 13 13 12 12 12 11 11 10 10 8 6 8 9 10 9 8 8 9
3 3 3 2 2 2 1 0 0 0 1 2 2 2 1 2 1 2 2 1 2 2 2 1 2 2 1 0 1 0 1 2 3 2 2 2 5 5 5 6 5 9 10 9 11 11 13 15 16 17 18 18 18 18 18 17 16 15 14 15 14 13 13 13 13 12 13 14 13 13 13 13 12 12 12 11 11 9 8 8 8 9 8 8 9
3 3 3 3 2 2 1 1 1 1 1 1 1 1 1 1 2 2 3 1 1 2 2 2 1 1 2 1 0 0 2 3 1 2 1 1 4 6 6 5 6 6 7 11 12 11 13 13 14 15 15 17 17 17 17 18 17 16 16 16 15 15 14 13 14 13 13 14 14 14 13 13 13 12 12 12 11 10 10 9 9 9 9 9 10
2 3 2 2 2 2 2 1 1 1 1 0 1 0 1 2 2 2 0 0 0 0 1 1 1 1 1 1 2 1 0 1 1 1 2 1 2 4 6 7 7 6 7 6 10 14 13 12 12 13 13 14 17 17 17 18 18 18 18 18 17 16 15 14 14 14 13 14 14 14 14 13 13 13 11 12 13 13 11 11 11 10 10 10 10
1 2 2 1 2 2 2 1 1 1 1 2 2 1 1 1 1 1 2 0 0 1 1 1 1 1 2 2 1 0 0 2 2 1 2 1 3 3 4 5 6 7 7 7 6 6 11 10 11 11 12 12 14 16 17 17 18 18 18 15 14 15 15 15 15 14 14 14 14 14 14 14 13 13 13 13 14 13 13 11 11 11 10 10 10
2 2 3 2 1 1 1 2 2 2 1 1 2 1 2 0 2 1 1 1 0 0 1 2 2 1 1 2 1 1 1 1 2 2 2 2 3 2 2 3 5 6 5 6 4 5 8 12 12 12 12 12 12 13 14 16 16 15 15 10 10 14 14 15 14 14 14 14 14 14 14 14 14 13 14 14 14 14 13 13 12 11 11 11 10
3 3 3 2 2 2 1 1 2 2 1 1 1 0 1 2 1 2 1 0 0 0 0 0 1 1 1 1 1 1 2 2 3 3 3 4 4 3 3 2 3 4 4 3 4 4 4 8 12 12 13 13 13 13 13 13 8 11 12 10 15 17 15 14 15 15 15 14 13 14 14 14 14 14 14 14 14 14 14 14 14 13 12 13 12
2 3 3 2 2 2 2 2 2 2 2 1 0 0 1 1 2 1 1 1 1 1 1 1 0 1 2 2 2 2 2 2 2 4 4 4 4 4 2 3 3 2 3 3 4 4 5 4 4 4 7 13 13 11 9 10 9 17 17 18 16 15 12 13 14 15 15 15 14 14 14 14 15 15 15 15 15 15 15 15 15 15 14 14 13
3 3 2 3 3 3 3 2 2 2 2 2 0 0 2 2 2 1 0 0 1 2 3 3 2 2 2 3 3 3 4 2 2 2 2 3 4 2 4 3 4 3 4 4 3 4 4 4 4 3 4 7 6 4 9 14 15 18 19 18 16 15 15 13 12 13 15 15 14 14 14 14 14 15 16 16 16 16 16 16 16 16 15 15 15
2 3 3 3 3 2 1 1 3 3 3 2 2 2 0 1 1 1 1 1 1 2 2 0 2 1 2 2 3 2 2 1 2 2 2 3 2 4 3 2 3 3 4 3 3 4 4 4 4 4 6 7 9 13 12 14 14 16 17 17 17 17 16 14 13 12 13 14 14 14 14 15 15 15 16 16 16 16 16 16 16 16 16 16 15
3 3 2 2 2 1 1 2 2 2 1 1 1 0 1 1 1 1 2 0 0 2 4 1 2 1 1 4 4 4 2 3 2 2 2 1 2 4 3 4 4 4 3 4 4 4 4 4 4 5 5 5 4 4 6 8 11 16 17 17 17 18 18 17 15 14 13 13 14 15 14 15 16 15 15 16 16 16 16 16 17 17 17 17 15
3 3 3 3 3 2 2 2 3 1 1 0 0 1 1 0 1 1 2 2 1 1 4 3 0 0 0 1 2 1 2 4 2 3 4 3 1 1 3 3 4 4 5 4 4 4 3 4 4 5 6 4 4 5 6 7 8 13 15 16 16 17 19 19 18 16 15 14 14 15 15 16 16 16 16 16 15 15 15 15 16 17 17 16 15
3 3 3 3 4 3 2 2 1 1 3 2 0 0 1 2 2 2 1 2 4 2 2 3 1 0 1 1 1 1 0 1 2 5 2 4 2 2 1 2 2 3 2 4 4 2 2 3 4 4 4 4 4 3 3 3 6 10 12 12 15 17 18 20 20 19 18 16 15 15 16 17 17 17 16 15 15 15 16 16 17 17 16 16 15
3 2 3 3 3 3 3 3 3 3 2 2 1 0 0 0 2 3 3 1 3 2 2 2 2 2 2 1 1 1 1 1 2 3 3 4 2 2 2 2 2 3 3 4 2 3 3 3 3 3 3 3 3 3 3 3 2 2 4 9 12 13 14 16 17 17 17 16 15 16 18 17 17 17 17 16 16 16 16 16 17 16 17 16 16
2 2 3 3 3 3 4 3 3 3 4 4 3 3 3 2 1 3 3 2 2 3 3 3 2 2 2 1 0 1 1 1 1 1 4 1 2 3 3 4 3 3 2 2 1 2 3 4 2 4 4 4 4 3 3 3 2 2 4 6 11 11 10 12 14 15 17 17 17 17 17 17 16 17 17 17 16 16 16 16 17 17 16 16 16
2 2 3 3 3 2 3 3 3 4 3 5 4 4 3 3 2 3 2 2 3 3 3 3 2 2 2 1 0 0 1 1 1 1 3 4 3 3 3 6 5 4 2 1 1 2 1 1 3 3 3 2 3 3 3 3 4 4 8 9 9 10 9 10 12 14 16 17 18 18 18 16 16 15 17 18 17 16 16 16 16 16 16 16 16
4 3 3 3 3 2 2 2 2 1 3 4 4 3 3 2 2 3 2 3 4 4 1 3 2 2 3 3 2 0 2 1 0 1 0 2 5 4 1 4 4 7 5 5 3 2 1 2 3 3 2 2 2 1 0 1 2 4 5 7 10 13 13 12 13 13 13 14 15 17 17 16 17 16 16 15 14 13 14 15 15 15 16 16 16
4 4 4 3 3 3 3 3 3 2 2 4 3 3 4 4 3 3 3 2 2 2 3 1 2 2 3 3 2 3 2 1 1 1 3 2 3 1 4 3 3 5 6 5 5 5 4 2 1 2 2 4 3 4 5 4 4 4 5 6 5 4 8 12 15 12 11 10 11 13 13 13 13 14 13 14 14 11 12 12 13 14 15 15 16
3 3 3 3 3 3 3 4 4 3 1 3 3 3 3 3 3 3 3 3 1 2 2 2 1 1 2 1 4 3 4 3 3 3 1 0 0 2 2 4 5 4 5 7 5 7 7 6 5 5 4 4 5 5 6 6 5 4 7 14 14 15 15 14 12 9 8 8 11 11 11 12 13 11 10 12 11 11 9 9 9 10 12 13 13
2 2 3 3 3 3 4 3 2 1 3 4 3 3 2 2 2 3 3 3 1 2 2 2 1 2 2 2 2 2 1 1 1 1 1 0 1 2 2 3 1 4 5 6 6 8 8 8 8 8 8 7 7 7 6 6 8 9 14 15 16 16 16 15 14 13 11 9 8 11 10 7 7 10 11 12 11 9 9 8 9 10 10 11 11
2 3 3 3 4 3 3 3 3 4 3 3 3 2 2 2 2 2 2 2 3 4 3 3 3 3 2 0 1 1 1 0 1 1 0 1 2 1 0 1 1 1 2 4 3 6 7 7 7 6 6 5 5 5 5 6 7 12 8 12 12 14 16 16 16 14 13 10 6 3 4 6 9 10 8 8 8 6 5 3 4 5 6 9 11
5 6 4 4 4 4 3 4 3 4 4 4 3 3 3 3 3 3 2 3 3 4 3 3 3 1 2 2 0 1 1 1 0 0 1 1 4 2 1 1 2 1 1 2 2 2 6 6 6 6 5 5 4 4 5 5 5 10 10 8 16 15 16 18 17 18 17 15 12 4 3 5 7 7 7 7 5 4 5 6 7 7 8 9 12
6 6 6 4 4 5 4 4 4 4 4 4 4 3 3 3 2 2 1 1 2 3 3 2 3 2 0 2 3 3 3 1 1 1 1 3 2 2 1 2 1 2 1 2 2 2 3 4 4 5 6 4 3 4 6 7 7 12 13 9 11 15 13 14 16 16 16 16 16 15 11 8 7 8 8 6 5 6 7 8 9 8 10 11 12
6 5 4 4 5 4 4 4 4 4 4 4 3 3 3 3 2 1 1 2 3 3 3 3 3 2 3 2 2 4 4 4 4 3 2 3 3 2 3 1 3 3 3 1 2 3 1 1 3 6 7 7 6 6 7 7 8 13 11 8 7 13 13 13 14 16 17 17 16 15 15 14 12 11 9 8 8 9 10 11 12 12 13 15 15
5 5 5 5 6 5 4 4 4 4 4 4 4 3 3 4 2 2 3 1 3 3 1 2 2 1 2 2 4 3 2 3 3 2 2 2 3 2 4 4 2 2 2 2 2 1 1 3 1 6 8 8 8 7 8 9 7 10 9 6 7 7 12 12 12 13 15 15 15 14 14 13 13 14 14 14 14 14 14 15 16 16 15 16 16
7 5 6 5 6 6 6 5 4 4 4 4 4 3 3 3 3 3 3 1 3 2 1 2 1 1 1 3 3 2 2 2 3 3 2 2 2 2 2 4 3 3 0 1 2 1 2 2 2 4 8 6 6 6 6 6 8 7 5 5 5 5 8 11 11 11 12 11 12 12 13 13 13 13 13 13 14 13 13 14 15 16 17 18 16
7 6 6 7 6 7 7 5 4 4 4 4 4 3 4 3 3 2 3 2 2 1 2 1 1 1 1 1 1 3 0 3 4 3 3 3 3 4 3 3 4 4 3 2 2 2 2 3 6 4 4 5 4 5 4 4 7 7 5 5 4 4 7 8 9 11 11 13 13 11 12 15 16 16 15 15 16 16 16 16 15 15 15 15 14
8 8 7 7 7 6 7 6 5 4 4 5 4 4 4 4 3 3 1 2 3 2 1 2 1 1 2 2 1 1 1 4 4 3 4 4 5 5 5 4 4 2 3 3 1 1 3 4 3 3 3 2 2 2 3 4 5 6 5 5 5 8 9 8 11 12 12 14 14 13 13 15 16 15 16 16 16 17 17 17 16 15 14 12 11
9 10 9 8 7 7 6 7 6 5 6 5 5 4 4 4 3 3 2 2 3 3 1 0 1 1 1 2 2 2 2 4 4 3 3 3 3 6 5 6 5 4 4 3 2 0 1 2 2 4 4 3 1 4 3 3 4 6 4 4 6 8 7 6 9 11 13 13 12 13 13 12 12 13 15 16 16 17 17 17 14 12 10 9 10
7 8 9 10 9 8 8 7 7 7 6 5 4 4 4 4 3 3 1 3 3 1 1 1 2 2 4 4 3 2 3 4 3 3 4 3 4 5 5 6 5 3 4 3 2 0 2 1 2 3 4 5 5 4 5 4 5 5 4 4 5 4 5 5 5 8 13 11 11 12 11 11 11 11 12 14 14 13 14 13 14 14 12 11 10
9 11 12 10 9 8 8 7 6 6 6 6 5 5 5 4 4 3 3 3 2 1 1 1 2 1 1 4 2 1 2 4 3 3 3 3 4 5 4 5 5 5 2 3 1 1 1 3 4 3 3 2 3 4 5 6 6 5 5 4 3 4 4 5 5 5 11 10 11 10 10 10 11 11 11 11 12 13 13 13 13 13 13 12 11
1 4 7 8 7 7 6 6 6 6 6 6 6 6 6 5 4 3 4 3 3 1 1 1 0 1 3 3 1 0 1 3 2 2 2 4 4 6 4 3 5 3 3 3 2 1 1 1 1 3 3 3 2 4 5 4 4 4 4 5 4 5 4 5 5 4 9 11 11 10 10 11 11 11 11 11 12 12 13 13 13 13 13 12 11
2 1 2 1 4 9 8 6 7 6 5 6 6 6 7 6 5 5 3 3 2 3 3 2 1 2 3 3 2 3 3 4 2 3 3 3 5 5 4 3 4 3 3 3 2 2 0 0 1 1 2 3 2 3 4 4 4 4 3 3 3 5 5 6 6 5 8 11 11 11 12 13 12 12 12 12 12 13 13 13 13 13 13 13 12
1 2 2 6 3 5 8 9 8 7 7 7 8 6 6 6 6 5 4 4 4 3 3 2 3 4 3 3 2 2 4 4 2 3 2 4 2 4 5 3 4 3 2 3 3 3 2 1 1 1 1 1 1 2 3 4 4 3 3 4 3 4 4 4 5 5 8 10 9 10 11 12 12 13 13 13 13 14 14 13 13 13 13 13 12
4 1 1 0 4 6 7 8 8 8 8 8 8 8 7 6 6 5 5 4 4 4 3 2 3 3 4 3 3 3 3 4 3 2 2 3 3 3 3 3 3 3 3 3 3 3 3 1 0 1 1 2 3 2 2 3 3 4 4 3 3 4 5 6 4 5 5 5 5 6 8 9 11 13 13 13 14 14 14 14 13 13 12 11 11
7 6 5 3 1 3 7 7 8 8 9 9 8 7 7 7 6 6 5 5 4 3 3 2 3 3 3 4 3 3 4 4 4 3 3 3 3 3 3 3 2 3 3 2 2 3 2 1 0 1 1 2 1 2 3 2 0 2 3 5 5 3 3 4 6 5 3 5 6 8 8 9 11 9 11 13 13 14 13 13 11 10 11 12 12
7 8 8 6 5 2 2 4 6 7 8 8 7 7 7 7 6 6 6 5 4 3 2 2 3 2 3 4 4 3 4 3 4 3 3 3 2 3 2 3 2 2 1 1 1 1 1 1 0 0 1 1 4 2 2 3 5 4 4 3 6 7 7 5 3 5 4 4 6 8 8 8 8 10 11 10 11 12 12 11 12 14 14 14 13
1 1 3 6 5 4 5 3 3 5 7 7 6 7 7 6 6 6 6 6 5 4 4 4 2 3 4 4 4 4 4 6 7 5 5 4 2 2 1 1 2 2 1 1 1 0 0 0 1 1 1 2 2 3 5 3 3 3 2 4 4 5 5 6 7 3 2 4 6 6 7 6 7 8 8 8 8 11 10 13 11 13 14 13 12
4 1 1 1 3 4 5 5 1 4 5 5 9 13 10 8 7 5 5 5 5 5 5 4 2 3 4 5 4 9 8 8 8 7 5 4 3 2 2 2 2 2 2 1 1 0 0 1 1 0 1 2 2 1 1 2 2 2 5 5 5 6 5 6 4 2 3 2 7 8 8 5 5 7 7 7 6 8 7 7 9 10 12 13 13
4 5 4 4 4 3 3 3 4 6 6 6 15 16 14 13 8 7 7 5 5 5 4 4 4 4 3 4 5 7 7 6 6 7 6 6 4 2 2 3 4 2 2 1 1 0 0 1 1 0 1 2 3 1 1 3 2 1 1 2 3 4 4 6 6 8 1 3 5 6 8 5 4 7 7 6 7 6 8 8 13 15 15 15 15
3 4 5 6 6 6 6 5 5 4 5 7 14 15 15 15 11 8 6 6 5 5 5 5 4 4 5 4 3 3 4 5 5 4 5 6 6 6 5 3 2 1 1 2 1 1 1 1 2 3 1 3 2 1 2 1 3 3 2 2 1 2 3 3 3 4 7 4 5 6 7 4 3 6 6 6 7 6 8 12 15 16 15 16 15
3 5 6 6 7 8 8 7 7 7 5 6 11 13 14 15 14 10 6 6 7 6 5 4 4 4 5 5 4 4 4 12 8 5 3 2 5 7 6 4 4 4 5 5 5 4 2 1 2 3 4 2 1 2 1 0 0 2 3 2 1 2 1 3 3 3 8 5 4 3 5 5 5 6 5 5 5 5 5 10 17 19 18 18 17
5 4 5 6 6 8 8 8 7 6 6 8 13 15 14 14 13 10 6 7 6 5 5 4 4 5 6 5 4 3 3 2 4 4 3 2 2 3 3 2 1 2 4 8 9 10 8 6 5 5 4 3 3 2 1 0 1 3 3 3 1 1 3 4 4 5 7 4 2 3 4 4 5 5 5 4 2 2 4 8 16 18 18 19 18
6 6 6 5 5 5 5 6 7 8 8 12 15 15 15 14 13 9 6 5 5 5 4 4 5 6 6 6 5 5 4 4 4 4 4 3 3 3 2 1 1 2 3 3 4 4 6 6 7 8 7 4 4 4 3 2 3 4 3 4 3 2 2 3 3 4 5 3 1 2 4 6 4 6 5 5 4 1 2 6 15 17 18 19 19
5 4 5 4 5 5 6 7 6 7 7 14 15 15 14 14 14 6 6 6 5 5 4 4 5 6 6 6 6 5 4 4 5 9 7 5 4 3 2 1 0 1 2 2 7 5 6 6 7 8 8 7 6 4 3 3 3 3 2 0 0 0 2 5 5 4 2 5 1 4 3 5 3 5 6 4 5 1 3 3 8 14 15 17 19
5 5 6 6 5 5 5 5 6 6 6 12 14 14 14 15 11 5 6 5 5 5 5 5 6 5 6 6 6 5 4 4 6 8 9 7 3 3 2 2 1 0 1 3 6 6 3 7 9 10 11 10 10 10 9 10 7 4 2 3 6 1 2 3 4 3 5 4 1 4 2 5 4 3 6 5 4 6 6 7 7 9 12 14 16
5 6 5 5 4 5 6 8 9 9 8 12 18 16 15 15 11 8 6 6 6 5 5 4 5 5 6 12 9 6 6 5 8 9 9 7 4 4 3 3 2 1 2 1 2 2 3 1 5 7 9 11 11 11 11 12 12 7 5 7 4 3 3 2 2 2 5 3 2 4 4 2 4 3 3 4 2 5 6 6 7 8 10 8 12
5 4 3 4 4 4 5 6 11 8 3 6 12 12 14 15 11 8 8 7 6 6 5 5 4 4 4 7 11 9 8 8 11 10 10 7 4 4 4 3 3 4 5 1 1 2 4 5 4 4 4 5 4 4 6 11 10 8 8 9 4 4 5 3 1 3 4 1 1 5 5 2 4 3 3 4 2 4 6 6 7 7 7 7 6
Wind_Direction
139 121 76 69 81 121 92 91 65 40 29 47 89 100 86 89 144 172 22 341 335 315 74 347 51 21 44 25 42 49 37 27 332 230 185 176 185 187 183 185 183 183 181 181 183 184 188 191 190 192 193 195 196 200 202 201 204 205 202 189 190 203 203 207 201 200 208 216 213 215 215 218 225 227 230 222 215 215 222 221 219 221 219 218 217
130 99 103 107 113 124 124 155 78 71 59 89 39 69 116 5 96 47 149 182 279 285 116 43 78 42 23 107 58 66 51 21 14 227 187 186 182 178 180 187 190 189 186 185 186 187 189 191 191 194 195 196 198 199 204 204 207 205 205 192 192 197 202 208 206 202 205 210 214 222 227 223 224 227 225 229 220 214 224 229 230 228 224 221 224
98 103 108 119 132 128 127 104 106 167 90 122 144 136 339 330 326 205 247 199 193 257 289 79 107 154 260 81 111 95 88 32 4 30 207 152 149 175 186 189 195 197 193 190 189 190 190 192 193 195 197 198 200 202 204 207 208 208 204 196 196 197 200 207 210 207 207 210 212 215 222 231 234 232 231 230 224 217 215 221 227 231 235 229 226
97 93 112 129 137 127 152 130 177 209 199 195 145 165 186 216 284 284 248 224 171 187 258 61 184 213 220 213 204 182 115 110 36 19 358 149 148 162 175 187 198 205 209 207 205 199 196 196 197 198 200 201 202 204 205 207 209 209 203 201 199 202 203 206 211 210 211 210 213 214 217 223 228 236 242 243 242 227 220 226 228 227 228 238 235
124 130 143 152 158 144 169 203 248 244 191 186 158 141 139 182 219 214 251 248 187 165 154 171 198 215 215 255 297 18 16 86 105 50 339 160 153 165 170 178 185 198 204 209 210 210 209 206 204 204 205 206 207 207 207 208 209 209 208 205 202 202 207 206 209 211 211 213 214 215 217 220 224 228 235 240 239 244 238 223 224 228 227 230 240
129 120 137 143 136 146 156 158 231 172 126 111 102 90 146 169 227 215 208 199 208 156 150 185 222 211 152 201 347 150 87 86 101 137 52 285 185 169 172 170 171 182 194 204 210 214 214 213 212 213 212 213 214 214 214 213 213 212 210 211 207 206 207 207 211 211 211 213 215 217 218 220 222 225 230 234 237 236 239 241 237 236 235 231 238
130 132 125 123 119 121 113 176 200 162 129 94 75 333 115 195 180 172 234 306 302 232 155 141 123 29 14 140 162 197 55 105 131 119 114 291 248 190 171 171 174 182 192 194 206 210 210 214 216 218 220 218 217 220 222 220 218 217 215 213 213 210 207 206 211 213 212 213 213 215 218 221 222 223 223 229 234 237 236 237 238 238 239 239 239
145 129 138 156 152 152 172 140 126 101 62 77 83 108 284 310 287 167 107 37 226 317 352 337 11 21 322 346 3 23 130 140 147 192 155 155 264 228 185 177 178 186 187 196 204 208 210 214 221 225 227 229 225 222 225 228 226 223 224 222 227 220 204 210 212 213 215 215 213 213 217 221 223 224 222 226 232 237 240 240 239 238 237 238 240
147 148 149 160 154 148 165 150 120 107 103 110 121 166 121 59 333 336 103 120 22 9 347 329 325 299 305 289 297 328 345 178 173 191 167 184 213 243 221 192 192 190 191 194 188 199 208 212 218 225 230 232 235 233 229 231 233 237 236 215 229 238 224 210 213 215 216 217 214 213 217 219 222 224 224 225 229 234 238 242 243 240 240 239 236
134 144 143 167 164 155 177 181 134 121 139 115 151 202 125 138 90 335 348 50 19 172 227 244 255 278 247 229 245 234 263 237 183 168 177 205 220 209 209 221 212 211 187 181 182 185 207 218 221 226 229 231 234 236 237 238 251 269 263 246 228 227 219 210 212 214 216 216 212 213 214 217 221 224 226 228 230 231 234 238 241 242 241 242 241
153 151 151 152 152 173 186 198 156 138 127 117 309 9 51 48 103 78 7 198 171 222 235 255 266 270 301 326 329 315 281 261 183 165 188 206 204 212 182 205 205 215 203 202 194 191 201 205 216 226 231 235 237 253 273 281 258 252 251 244 240 239 233 220 213 215 215 216 212 210 212 215 218 223 226 229 232 234 235 236 238 240 240 241 242
184 173 171 166 177 199 207 196 177 150 132 103 245 70 118 83 78 108 114 348 357 297 330 360 337 1 344 335 316 297 295 281 265 226 192 203 216 191 207 210 195 207 210 217 198 204 204 206 212 197 46 45 64 259 238 239 238 244 249 254 257 255 252 247 229 217 219 218 216 216 218 216 216 221 224 227 230 233 236 237 237 239 242 241 241
199 187 196 202 189 216 213 204 191 159 148 177 196 184 226 142 139 25 104 77 320 330 321 327 38 358 348 351 333 292 293 286 214 267 265 232 190 199 205 193 230 222 222 211 216 211 205 209 211 136 171 199 185 193 206 226 235 243 244 246 249 252 251 250 248 235 221 222 222 224 222 224 226 224 225 228 229 232 234 237 239 239 239 242 244
202 208 204 203 230 250 254 213 161 147 149 173 180 127 44 18 68 14 351 90 264 322 321 26 21 77 8 335 344 333 10 39 37 355 346 346 197 199 191 203 215 219 213 211 220 219 217 207 196 160 186 201 167 176 200 221 236 240 244 244 245 247 249 247 243 243 238 225 222 223 224 226 230 227 226 229 232 232 233 234 235 238 241 242 241
204 206 200 212 210 195 218 193 163 165 110 130 17 27 66 39 51 117 336 4 360 330 359 28 172 43 85 74 352 22 337 5 339 337 338 341 338 203 208 216 230 209 196 196 208 218 218 203 177 174 190 188 180 188 203 211 216 225 231 236 239 241 242 240 238 235 235 232 224 221 224 226 232 230 232 233 231 231 232 232 233 236 239 241 242
195 183 165 171 169 159 137 109 129 179 158 166 341 329 20 26 33 43 114 22 354 318 5 13 86 101 10 135 207 110 16 340 323 296 304 314 299 255 280 253 245 237 189 200 204 195 207 164 172 190 181 183 187 193 216 230 232 226 224 223 231 235 237 239 237 232 230 229 227 224 223 228 233 231 230 231 231 231 232 233 233 235 237 240 240
183 146 124 127 138 135 123 130 123 133 112 106 133 209 89 128 103 75 68 138 0 324 322 14 26 357 146 75 20 36 196 252 349 293 337 340 345 327 283 261 261 252 211 222 188 183 181 204 199 180 165 170 170 192 209 220 238 243 244 237 234 232 236 240 242 242 237 230 227 225 230 229 230 229 229 227 228 228 227 229 232 234 238 240 241
160 155 127 124 130 143 140 123 117 121 115 125 127 103 93 87 135 117 64 37 128 40 348 348 43 32 54 84 168 166 155 274 75 327 314 273 310 329 317 321 298 268 289 320 310 217 175 186 194 190 181 185 189 184 192 210 212 219 228 234 235 238 241 245 247 244 240 236 233 231 231 229 227 225 227 228 229 229 229 230 232 236 239 240 241
173 157 115 110 128 154 151 147 148 140 142 124 118 138 157 147 150 93 125 113 75 65 19 314 348 350 39 19 322 297 148 90 66 346 356 318 354 348 346 357 356 355 347 15 357 9 338 194 190 223 243 226 197 203 186 195 227 241 249 252 261 265 260 256 248 242 239 236 234 235 237 234 228 225 231 233 234 231 231 232 234 235 238 241 243
154 150 154 144 124 123 115 97 99 129 122 131 141 151 121 105 103 125 108 94 110 112 53 5 87 306 344 21 8 259 221 235 143 135 197 327 318 340 342 5 13 27 14 11 4 342 16 359 354 341 328 282 241 217 96 342 333 311 291 297 302 301 293 279 268 247 234 232 234 235 236 236 235 233 237 242 241 243 245 242 237 237 238 240 242
162 168 171 164 149 136 118 108 120 137 130 124 123 134 131 126 106 96 115 113 128 142 107 29 78 6 13 353 16 19 9 107 224 176 175 190 280 347 336 340 38 25 13 6 356 350 342 341 306 310 310 293 318 22 15 354 330 324 322 327 335 317 284 277 277 275 271 257 252 248 242 243 247 248 250 254 260 262 250 245 247 247 245 244 244
194 183 169 177 155 145 137 140 145 156 119 136 132 128 148 149 164 147 150 146 108 138 136 172 126 87 90 96 36 349 18 17 19 20 38 67 51 317 352 2 5 331 354 2 4 25 20 29 24 9 16 17 28 32 36 34 17 26 19 29 30 35 33 31 27 20 7 1 354 344 332 317 292 281 272 268 262 260 270 269 257 244 243 246 249
170 190 181 158 160 161 143 147 140 129 123 131 142 146 168 167 191 156 155 147 161 91 64 73 83 66 58 81 103 97 106 96 311 16 107 79 29 340 326 350 53 3 347 348 16 42 56 52 52 47 52 57 52 51 44 34 32 35 34 32 30 28 34 36 34 35 38 39 27 349 326 291 325 318 296 281 280 281 286 287 283 280 280 273 259
164 166 195 157 150 157 137 122 116 117 139 143 139 138 125 109 102 94 128 143 124 103 105 74 58 41 28 299 102 157 161 162 223 192 128 207 172 187 124 309 25 36 322 340 13 51 66 63 60 54 44 48 48 47 46 38 28 32 34 34 27 27 27 26 27 27 29 34 54 100 328 13 296 282 283 280 289 294 290 294 287 279 265 261 265
192 177 197 170 141 142 142 128 118 128 136 128 135 111 88 74 107 127 134 127 147 139 119 131 108 85 323 308 108 193 218 238 193 145 247 166 138 107 325 88 115 330 307 28 4 27 64 63 64 59 53 46 52 48 44 38 25 24 28 22 30 30 28 29 28 25 21 16 13 31 205 213 240 274 285 292 297 308 310 302 299 292 282 277 283
187 191 189 169 148 162 158 151 144 137 139 142 141 133 112 104 110 123 137 143 92 96 126 128 90 82 132 19 0 357 317 337 30 84 93 113 75 127 146 359 55 39 306 9 343 40 10 62 60 51 44 43 43 50 47 32 30 24 28 30 28 28 25 24 22 21 19 17 14 7 357 341 325 308 290 286 281 273 270 270 271 269 270 274 278
189 191 182 163 153 152 154 146 149 136 133 138 130 105 101 89 96 109 62 106 99 96 79 80 66 38 51 93 54 46 23 16 65 55 93 108 133 169 120 67 353 12 5 323 344 65 90 338 56 41 34 18 18 31 40 38 33 28 25 26 20 17 17 16 17 17 16 13 9 4 0 352 337 319 299 285 277 271 267 267 263 260 262 269 274
198 177 179 163 153 158 155 156 158 143 135 141 136 122 105 105 91 96 84 68 96 81 94 60 45 108 113 105 79 50 20 33 49 75 84 122 120 123 102 108 113 340 339 341 358 305 53 57 350 36 39 26 25 23 38 36 30 27 26 19 19 10 9 16 17 16 22 25 23 20 16 11 4 359 352 340 326 311 296 284 275 270 268 272 276
191 187 170 170 160 153 157 161 164 147 134 147 143 138 122 107 115 100 100 112 117 134 145 93 347 44 72 116 124 102 57 57 43 35 36 90 118 128 137 140 148 131 208 335 295 289 320 53 59 30 39 34 23 17 23 30 19 22 24 19 13 13 8 20 19 13 27 24 24 23 18 12 7 2 357 352 345 338 328 319 310 303 297 292 290
183 183 169 169 171 158 155 165 170 152 148 150 147 152 119 117 118 119 154 144 107 46 28 53 37 144 149 60 90 94 89 78 62 46 48 37 54 67 98 125 138 145 169 159 260 249 292 337 43 32 18 31 18 16 19 12 15 13 13 5 4 360 7 12 16 12 32 20 13 12 6 2 358 359 3 3 0 356 349 341 331 319 310 310 313
179 172 169 169 170 165 161 165 169 163 148 151 157 147 135 131 128 139 187 114 84 73 15 108 126 119 89 53 4 84 62 72 68 66 56 57 56 60 52 61 53 99 149 141 132 303 21 19 339 12 30 19 15 16 11 358 6 11 3 357 359 354 1 3 9 22 36 24 19 12 3 0 7 12 8 5 3 358 355 354 348 340 332 324 314
182 170 168 169 170 167 170 164 169 165 159 160 153 144 127 135 143 139 196 98 95 114 109 13 137 128 102 62 21 36 6 78 72 69 76 69 74 68 63 72 65 60 97 111 131 231 26 52 325 332 356 356 360 28 14 357 357 3 6 2 8 16 26 22 7 42 34 30 17 11 6 9 16 13 5 3 0 355 351 348 344 339 327 320 319
171 164 166 169 169 170 167 168 169 169 165 158 161 138 135 143 164 171 173 106 126 179 133 54 29 89 113 114 112 114 125 86 103 85 75 77 76 73 77 80 70 60 92 102 117 339 303 360 360 348 326 351 360 8 6 359 355 352 357 22 29 36 32 21 4 22 24 16 12 6 7 13 14 9 2 357 354 348 343 340 338 338 337 336 328
175 179 178 168 165 167 166 173 173 171 170 162 159 144 147 153 182 183 121 129 133 153 70 18 352 47 108 129 158 176 133 118 111 101 117 92 87 79 73 93 90 70 79 113 123 118 307 318 359 338 343 11 355 340 3 353 341 345 5 24 34 40 36 21 9 2 8 3 1 2 6 7 0 357 354 349 342 339 335 332 331 331 328 327 325
318 176 162 162 166 154 159 175 184 181 177 165 163 157 155 158 171 164 157 157 160 132 72 54 41 93 90 86 54 44 103 110 111 118 103 97 97 98 93 93 96 91 75 103 125 123 100 304 302 345 342 342 355 331 346 348 341 1 25 26 20 26 29 18 7 353 354 353 353 358 0 355 350 345 341 337 333 329 327 323 322 323 320 319 318
155 236 124 169 164 154 171 192 193 188 174 165 166 166 161 163 163 168 172 171 145 128 149 175 136 101 107 82 44 67 79 74 34 60 67 102 107 112 104 101 105 106 85 83 85 134 163 94 305 283 313 343 313 322 351 355 11 15 31 16 22 28 14 9 3 353 348 349 354 353 350 345 340 337 334 329 325 322 318 316 316 316 316 315 316
217 188 153 133 255 180 185 197 195 187 176 171 171 167 164 166 162 156 152 151 152 165 186 151 120 124 130 135 160 98 97 95 56 52 50 82 97 109 114 119 116 118 99 93 94 102 114 90 284 289 311 311 271 315 15 14 353 10 14 28 10 12 2 360 357 352 346 353 348 341 337 334 329 329 326 323 319 314 311 309 309 309 310 312 316
149 177 113 53 200 219 214 199 189 184 176 180 173 169 169 169 163 153 155 156 166 179 180 161 147 160 151 150 150 134 123 126 131 118 98 94 91 95 112 124 129 125 114 111 109 102 93 86 209 326 341 353 339 323 347 29 25 10 2 359 3 11 2 350 352 350 349 340 334 334 330 327 325 322 319 316 312 309 307 305 305 307 312 323 333
189 185 188 191 170 204 233 221 193 181 179 177 170 167 166 166 162 154 153 157 168 181 193 177 174 183 157 136 146 138 134 143 144 135 120 109 107 107 123 125 126 101 99 102 97 81 87 75 323 47 333 309 345 331 332 8 42 78 26 356 355 341 344 343 336 339 332 322 312 314 319 314 314 317 312 311 309 310 310 311 317 339 343 341 335
188 183 185 198 225 194 280 234 210 182 171 171 168 163 163 163 157 158 159 163 168 167 164 191 196 189 121 141 139 154 143 151 144 156 136 147 145 132 166 135 130 108 114 112 73 95 85 87 143 312 8 313 346 324 327 4 16 3 27 16 351 343 343 334 320 321 314 322 325 329 327 328 330 326 324 321 322 329 348 354 2 352 346 341 334
325 228 187 192 207 203 259 256 210 169 167 165 162 157 150 154 157 160 164 163 162 172 190 203 172 125 132 137 149 143 162 160 158 158 161 156 148 154 210 134 135 121 132 106 128 107 25 106 348 21 15 357 316 360 348 11 18 334 325 22 352 340 331 335 327 311 301 325 323 323 324 334 329 330 328 333 342 1 9 4 353 348 346 340 333
224 220 90 144 233 228 231 265 251 179 189 174 163 153 152 152 158 161 163 170 174 181 188 202 178 152 153 156 164 165 161 155 151 151 147 140 151 170 181 146 125 113 125 107 76 25 22 358 265 219 5 310 291 308 314 296 294 353 9 10 2 332 341 329 306 288 311 349 341 333 324 334 336 325 337 344 1 15 1 4 356 352 352 348 345
210 212 196 196 181 199 230 244 234 215 195 185 161 148 155 156 159 166 164 166 163 173 185 188 199 184 182 173 187 188 174 173 164 170 168 160 174 220 163 164 160 150 130 90 354 124 193 183 214 141 208 286 290 267 270 285 320 19 338 4 353 352 2 359 338 323 270 35 334 327 317 330 353 343 341 357 16 11 14 9 4 10 7 5 1
211 208 210 210 196 196 201 213 228 231 205 194 158 156 163 167 169 169 165 162 167 177 178 182 198 170 167 166 170 136 151 169 183 182 193 170 190 215 217 205 230 288 121 164 194 264 218 218 269 255 212 239 248 301 287 329 305 346 349 22 24 1 340 338 301 299 291 351 340 322 308 320 356 349 348 12 23 30 27 27 28 24 21 21 17
208 216 221 214 212 204 201 203 206 208 213 195 174 170 172 172 170 163 170 170 176 186 182 183 178 168 167 160 166 185 193 184 175 182 181 204 204 213 218 209 217 224 247 237 223 227 180 205 226 261 215 208 239 250 199 213 165 327 320 349 347 332 274 290 271 284 303 325 341 304 306 318 358 350 351 10 28 18 20 35 39 33 26 26 22
234 225 224 221 210 205 201 194 194 194 195 188 184 177 177 174 169 163 172 175 179 179 181 173 164 164 163 160 171 194 229 160 155 173 176 201 167 188 206 215 235 263 253 243 242 236 224 218 209 232 246 175 217 212 209 78 322 294 292 279 226 287 288 276 276 278 281 312 314 296 304 326 353 345 345 342 16 55 35 32 44 37 32 28 27
254 246 238 236 230 218 211 201 194 192 196 181 187 179 177 172 170 166 175 174 173 176 168 160 164 162 162 166 173 188 201 203 194 171 148 169 156 163 185 244 252 254 259 273 254 230 218 217 219 227 246 231 232 247 252 234 232 242 232 241 222 208 250 276 285 254 282 297 316 26 322 323 338 342 336 325 319 166 98 36 47 45 38 35 32
252 247 252 240 242 227 205 195 180 184 181 180 188 183 179 175 170 168 171 174 178 178 169 173 180 173 169 168 169 178 191 208 206 180 170 162 160 170 195 255 309 292 285 329 336 261 202 204 216 225 232 235 234 237 238 235 249 262 259 333 6 149 353 342 315 311 298 306 349 30 328 318 333 343 320 319 313 4 33 11 47 51 45 41 36
248 240 239 226 227 223 218 206 195 187 181 174 184 187 185 178 168 164 169 172 185 184 189 187 194 191 183 175 174 180 182 198 197 175 168 164 160 177 200 238 248 325 308 324 7 29 152 199 223 241 257 265 269 267 264 259 249 237 221 302 282 267 321 310 307 328 305 318 351 4 328 312 332 332 315 327 17 54 39 27 26 39 43 42 40
232 237 238 236 232 215 211 211 207 195 193 181 185 189 184 180 171 165 169 173 188 190 199 203 205 209 201 192 178 181 190 204 193 192 181 173 179 193 195 214 241 274 278 304 329 323 1 266 246 251 261 268 271 273 268 261 250 220 192 227 230 144 236 209 251 287 296 308 53 342 352 300 323 308 309 308 82 45 41 27 24 13 17 26 35
237 234 224 235 248 231 217 217 226 221 177 163 186 184 181 181 174 168 166 175 179 193 193 209 213 204 222 219 204 188 195 197 190 197 193 185 183 189 196 189 232 246 240 202 305 338 341 346 330 333 300 278 266 252 257 252 245 203 196 218 199 176 229 239 227 304 331 316 53 5 352 312 356 291 333 337 52 93 39 33 27 23 16 11 20